Weather in Pervomayskiy

Russia / Zabaykalsky Krai     51°40′09″N   115°38′17″E
temp.,
°C
wind,
m/s
gust,
m/s
humid.,
%
clouds,
%
prec.,
mm/h
press.,
hPa
HPBL,
m
3 march, wed
wed300:00−20ssw3399100 0.0 101555
03:00−20ssw2399100 0.0 101344
06:00−21ssw239993 0.0 101225
09:00−21ssw229860 0.0 101225
12:00−15ssw2290100 0.0 1010234
15:00−11s2388100 0.0 1007291
18:00−12s339439 0.0 100860
21:00−12s359562 0.1 100998
4 march, thu
thu400:00−12wsw3588100 0.2 101181
03:00−16w6127699 0.2 1012229
06:00−19wnw614765 0.0 1015309
09:00−21wnw48832 0.0 1019181
12:00−17nnw69740 0.0 1022860
15:00−15n68643 0.0 10241537
18:00−17n377696 0.0 1028243
21:00−24nnw227475 0.0 103320
5 march, fri
fri500:00−28nnw117918 0.0 103619
03:00−29nnw11779 0.0 104019
06:00−30wnw11814 0.0 104319
09:00−29w11812 0.0 104519
12:00−22ssw22740 0.0 1043282
15:00−20s45810 0.0 1040423
18:00−21s46890 0.0 1039179
21:00−25s33910 0.0 104127
6 march, sat
sat600:00−27s23940 0.0 104022
03:00−27s229518 0.0 103919
06:00−26s119486 0.0 103619
09:00−25s009274 0.0 103520
12:00−20s1187100 0.0 1031273
15:00−16ssw2385100 0.0 1029397
18:00−17s3393100 0.0 1027109
21:00−21s239655 0.0 102921
7 march, sun
sun700:00−20s339784 0.0 102845
03:00−21s349871 0.0 102736
06:00−19s339521 0.0 102729
09:00−17s129013 0.0 102822
12:00−10s22850 0.0 1026203
15:00−7s348911 0.0 1025292
18:00−8s349593 0.0 1024106
21:00−12s349447 0.0 102734